Tracking 22879 objects as of 23-Apr-2021
HD Live streaming from Space Station
objects crossing your sky now

ONEWEB-0042

Track ONEWEB-0042 now!
10-day predictions
ONEWEB-0042 is classified as:


NORAD ID: 45441
Int'l Code: 2020-020T
Perigee: 1,221.4 km
Apogee: 1,224.4 km
Inclination: 87.9 °
Period: 109.8 minutes
Semi major axis: 7593 km
RCS: Unknown
Launch date: March 21, 2020
Source: United Kingdom (UK)
Launch site: TYURATAM MISSILE AND SPACE COMPLEX (TTMTR)
aabbcc
Your satellite tracking list
Your tracking list is empty




NASA's NSSDC Master Catalog

Two Line Element Set (TLE):
1 45441U 20020T   21112.47232534  .00000389  00000-0  10554-2 0  9996
2 45441  87.8946  35.1743 0001942  64.7418 295.3912 13.11917203 56034
Source of the keplerian elements: AFSPC